Temp
-5 -5 -5 -5 -5 -5 -5 -5 -5 -5 -5 -5 -5 -5 -5 -5 -5 -5 -5 -6 -6 -6 -6 -6 -6 -6 -6 -6 -6 -6 -6 -6 -6 -6 -6 -6 -6 -6 -6 -6 -6 -6
-5 -5 -5 -5 -5 -5 -5 -5 -5 -5 -5 -5 -5 -5 -5 -5 -5 -5 -5 -5 -5 -6 -6 -6 -6 -6 -6 -6 -6 -6 -6 -6 -6 -6 -6 -6 -6 -6 -6 -6 -6 -6
-5 -5 -5 -5 -5 -5 -5 -5 -5 -5 -5 -5 -5 -5 -5 -5 -5 -5 -5 -5 -5 -6 -6 -6 -6 -6 -6 -6 -6 -6 -6 -6 -6 -6 -6 -6 -6 -6 -6 -6 -6 -6
-5 -5 -5 -5 -5 -5 -5 -5 -5 -5 -5 -5 -5 -5 -5 -5 -5 -5 -5 -5 -5 -6 -6 -6 -6 -6 -6 -6 -6 -6 -6 -6 -6 -6 -6 -6 -6 -6 -6 -6 -6 -6
-5 -5 -5 -5 -5 -5 -5 -5 -5 -5 -5 -5 -5 -6 -5 -5 -5 -5 -5 -6 -6 -6 -6 -6 -6 -6 -6 -6 -6 -6 -6 -6 -6 -6 -6 -6 -6 -6 -6 -6 -6 -6
-5 -5 -5 -5 -5 -5 -5 -5 -5 -5 -5 -5 -5 -6 -6 -5 -5 -6 -6 -6 -6 -6 -6 -6 -6 -6 -6 -6 -6 -6 -6 -6 -6 -6 -6 -6 -6 -6 -6 -6 -6 -6
-5 -5 -5 -5 -5 -5 -5 -5 -5 -5 -5 -5 -5 -5 -5 -6 -6 -6 -6 -6 -6 -6 -6 -6 -6 -6 -6 -6 -6 -6 -6 -6 -6 -6 -6 -6 -6 -6 -6 -6 -6 -6
-6 -5 -5 -5 -5 -5 -5 -5 -5 -5 -5 -6 -5 -5 -5 -6 -6 -6 -6 -6 -6 -6 -6 -6 -6 -6 -6 -6 -6 -6 -6 -6 -6 -5 -5 -6 -6 -6 -6 -6 -6 -6
-6 -6 -6 -5 -5 -5 -5 -5 -5 -5 -6 -6 -6 -5 -5 -6 -6 -6 -6 -6 -6 -6 -6 -6 -6 -6 -6 -6 -6 -6 -6 -6 -6 -6 -5 -5 -5 -5 -5 -5 -5 -6
-6 -6 -6 -6 -6 -6 -5 -5 -5 -5 -5 -6 -5 -6 -6 -6 -6 -6 -6 -6 -6 -6 -6 -6 -6 -6 -6 -6 -6 -6 -6 -6 -6 -6 -6 -6 -5 -5 -5 -5 -5 -5
-6 -6 -6 -6 -6 -6 -6 -6 -5 -5 -5 -5 -5 -5 -6 -6 -6 -6 -6 -6 -6 -6 -6 -6 -6 -6 -6 -6 -6 -6 -5 -5 -5 -5 -5 -5 -5 -5 -5 -5 -5 -5
-6 -6 -6 -6 -6 -6 -6 -6 -6 -5 -5 -5 -5 -5 -5 -5 -5 -5 -5 -5 -5 -5 -6 -6 -6 -6 -6 -6 -5 -5 -5 -5 -5 -5 -5 -5 -5 -5 -5 -5 -5 -5
-6 -6 -6 -6 -6 -6 -6 -6 -6 -6 -6 -5 -5 -5 -5 -5 -5 -5 -5 -5 -5 -5 -5 -5 -5 -5 -5 -5 -5 -5 -5 -5 -5 -5 -5 -5 -5 -5 -5 -5 -5 -5
-5 -6 -6 -6 -6 -6 -6 -6 -6 -6 -6 -6 -5 -5 -5 -5 -5 -5 -5 -5 -5 -5 -5 -5 -5 -5 -5 -5 -5 -5 -5 -5 -5 -5 -5 -5 -5 -5 -5 -5 -5 -5
-5 -6 -6 -6 -6 -6 -6 -6 -6 -6 -6 -6 -6 -6 -6 -6 -6 -5 -5 -5 -5 -5 -5 -5 -5 -5 -5 -5 -5 -5 -5 -5 -5 -5 -5 -5 -5 -5 -5 -5 -5 -5
-6 -6 -6 -6 -6 -6 -6 -6 -6 -6 -6 -6 -6 -6 -6 -6 -6 -7 -6 -6 -5 -5 -5 -5 -5 -5 -5 -5 -5 -5 -5 -5 -5 -5 -5 -5 -5 -5 -5 -5 -5 -5
-6 -7 -6 -6 -6 -6 -6 -6 -6 -6 -6 -6 -6 -6 -6 -6 -6 -7 -7 -7 -7 -6 -6 -5 -5 -5 -5 -5 -5 -5 -5 -5 -5 -5 -5 -5 -5 -5 -5 -5 -5 -5
-7 -7 -7 -7 -6 -6 -6 -6 -6 -6 -7 -6 -6 -6 -6 -6 -6 -6 -7 -7 -7 -7 -6 -6 -6 -6 -6 -6 -5 -5 -5 -5 -5 -6 -6 -6 -6 -6 -6 -5 -5 -5
-7 -7 -7 -7 -7 -7 -7 -7 -7 -7 -7 -7 -7 -6 -6 -6 -6 -6 -6 -6 -7 -7 -7 -7 -6 -6 -6 -6 -6 -6 -6 -6 -6 -6 -6 -6 -6 -6 -6 -6 -6 -6
-7 -7 -7 -7 -7 -7 -7 -7 -7 -7 -7 -7 -6 -6 -6 -6 -6 -6 -6 -6 -6 -7 -7 -7 -7 -6 -6 -6 -6 -6 -6 -6 -6 -6 -6 -6 -6 -6 -6 -6 -6 -6
-7 -7 -7 -7 -7 -7 -7 -7 -7 -7 -7 -7 -6 -6 -6 -6 -6 -6 -7 -6 -6 -6 -6 -6 -7 -7 -6 -6 -6 -6 -6 -5 -5 -5 -5 -6 -6 -6 -6 -6 -6 -6
-7 -7 -7 -7 -7 -7 -7 -7 -7 -7 -7 -7 -7 -6 -6 -6 -6 -6 -7 -7 -6 -6 -6 -6 -6 -6 -6 -6 -6 -6 -6 -5 -5 -5 -5 -5 -5 -5 -5 -5 -5 -6
-8 -8 -7 -7 -7 -7 -7 -7 -7 -7 -7 -7 -7 -6 -7 -7 -7 -7 -7 -7 -7 -7 -6 -6 -6 -6 -6 -6 -6 -6 -6 -5 -5 -5 -5 -5 -5 -5 -5 -5 -5 -5
-7 -8 -8 -7 -7 -8 -7 -7 -7 -7 -7 -7 -7 -7 -7 -7 -7 -7 -7 -7 -7 -7 -7 -7 -7 -7 -6 -6 -6 -6 -6 -6 -5 -5 -5 -5 -5 -5 -5 -5 -5 -5
-7 -8 -8 -8 -8 -8 -8 -8 -7 -8 -8 -7 -7 -7 -7 -7 -7 -7 -7 -7 -7 -6 -6 -7 -7 -7 -7 -6 -6 -6 -6 -6 -6 -5 -5 -5 -5 -5 -5 -5 -5 -5
-8 -8 -8 -8 -8 -8 -8 -8 -7 -8 -8 -8 -8 -8 -7 -7 -7 -7 -7 -7 -7 -6 -6 -6 -7 -7 -7 -7 -7 -6 -6 -6 -6 -6 -6 -6 -6 -5 -5 -5 -5 -5
Height
5951 5953 5954 5955 5956 5957 5958 5959 5960 5961 5962 5963 5964 5964 5965 5966 5968 5969 5970 5970 5971 5971 5972 5972 5973 5973 5974 5975 5975 5976 5977 5977 5978 5978 5979 5979 5980 5980 5981 5981 5982 5982
5950 5952 5953 5955 5956 5957 5958 5958 5959 5960 5961 5962 5963 5964 5965 5966 5967 5968 5969 5970 5971 5972 5972 5972 5973 5973 5974 5974 5975 5976 5976 5977 5977 5978 5978 5979 5980 5980 5981 5981 5982 5982
5950 5951 5952 5954 5955 5956 5957 5958 5959 5959 5960 5961 5962 5963 5964 5965 5966 5967 5968 5970 5971 5971 5972 5973 5973 5973 5974 5974 5975 5975 5976 5977 5977 5978 5978 5979 5979 5980 5980 5981 5981 5982
5949 5950 5951 5953 5954 5955 5956 5957 5958 5958 5959 5960 5961 5962 5963 5964 5965 5966 5967 5968 5970 5971 5972 5972 5973 5973 5974 5974 5974 5975 5975 5976 5977 5977 5978 5978 5979 5979 5980 5981 5981 5981
5948 5949 5950 5951 5953 5954 5955 5956 5956 5957 5959 5960 5960 5961 5962 5963 5964 5965 5966 5967 5968 5970 5971 5971 5972 5973 5973 5974 5974 5974 5975 5975 5976 5976 5977 5978 5978 5979 5980 5980 5981 5981
5947 5948 5950 5950 5951 5952 5953 5954 5955 5956 5957 5958 5959 5960 5961 5961 5962 5963 5965 5966 5967 5968 5969 5970 5971 5972 5972 5973 5973 5974 5974 5974 5975 5976 5976 5977 5978 5978 5979 5979 5980 5981
5946 5947 5949 5950 5950 5951 5952 5953 5954 5955 5956 5957 5958 5959 5959 5960 5961 5962 5963 5964 5965 5966 5967 5968 5969 5970 5971 5972 5973 5973 5974 5974 5974 5975 5975 5976 5977 5978 5978 5979 5979 5980
5944 5946 5947 5949 5949 5950 5950 5951 5952 5953 5954 5955 5956 5957 5958 5959 5960 5961 5961 5962 5963 5964 5965 5966 5968 5969 5970 5971 5972 5972 5973 5973 5973 5974 5975 5975 5976 5977 5977 5978 5978 5979
5941 5943 5945 5947 5948 5949 5949 5949 5950 5951 5952 5953 5954 5955 5956 5957 5958 5959 5960 5961 5962 5962 5963 5964 5966 5967 5968 5969 5970 5971 5972 5972 5972 5973 5974 5974 5975 5976 5976 5977 5977 5978
5938 5940 5942 5945 5946 5947 5948 5948 5948 5949 5950 5950 5951 5953 5954 5955 5956 5957 5958 5959 5960 5961 5962 5963 5964 5965 5966 5968 5969 5969 5970 5971 5971 5972 5972 5973 5974 5975 5975 5976 5976 5977
5936 5938 5940 5942 5944 5946 5947 5947 5947 5948 5948 5948 5949 5951 5952 5953 5954 5955 5957 5957 5958 5959 5960 5961 5962 5963 5965 5966 5967 5968 5968 5969 5969 5970 5971 5971 5972 5973 5974 5974 5975 5976
5933 5935 5936 5938 5940 5942 5944 5946 5947 5948 5947 5947 5948 5948 5950 5951 5952 5954 5955 5956 5957 5958 5959 5960 5961 5962 5963 5964 5965 5966 5966 5967 5967 5968 5969 5969 5970 5971 5972 5973 5973 5974
5930 5931 5932 5933 5935 5937 5940 5943 5946 5948 5948 5948 5948 5948 5948 5949 5951 5952 5953 5954 5955 5957 5958 5959 5960 5961 5962 5963 5963 5964 5964 5965 5965 5966 5967 5967 5968 5968 5969 5970 5971 5972
5926 5928 5929 5931 5933 5935 5937 5940 5943 5946 5948 5949 5949 5949 5949 5949 5950 5951 5952 5952 5954 5955 5956 5957 5958 5959 5960 5961 5962 5962 5963 5963 5964 5964 5964 5965 5966 5966 5967 5967 5968 5969
5923 5925 5927 5929 5931 5933 5935 5937 5940 5942 5945 5947 5949 5949 5949 5950 5950 5951 5952 5952 5952 5953 5954 5955 5956 5956 5957 5958 5959 5960 5961 5962 5962 5962 5963 5963 5963 5964 5964 5965 5966 5967
5920 5922 5925 5927 5929 5931 5933 5934 5936 5938 5941 5944 5946 5947 5947 5947 5948 5949 5951 5952 5952 5952 5953 5953 5953 5954 5954 5955 5956 5958 5959 5960 5961 5961 5962 5962 5962 5962 5962 5963 5963 5964
5917 5919 5922 5924 5927 5929 5930 5931 5933 5935 5937 5939 5942 5945 5945 5943 5943 5944 5947 5950 5951 5952 5952 5952 5952 5952 5952 5953 5954 5955 5956 5958 5959 5960 5961 5962 5962 5962 5962 5962 5962 5963
5915 5917 5919 5922 5924 5926 5928 5929 5931 5932 5933 5934 5937 5940 5942 5941 5940 5940 5943 5946 5949 5950 5951 5952 5952 5951 5951 5951 5952 5953 5954 5955 5957 5958 5959 5960 5961 5962 5962 5962 5962 5962
5913 5915 5917 5919 5921 5923 5925 5927 5929 5930 5931 5931 5932 5935 5938 5940 5940 5939 5940 5942 5945 5947 5948 5949 5949 5950 5950 5950 5950 5950 5951 5952 5954 5955 5956 5958 5959 5960 5961 5961 5962 5962
5911 5913 5915 5917 5918 5919 5921 5923 5926 5927 5928 5929 5930 5932 5935 5937 5938 5937 5937 5938 5941 5943 5944 5945 5946 5947 5948 5948 5948 5948 5949 5950 5951 5952 5953 5954 5955 5956 5957 5958 5959 5960
5908 5911 5913 5914 5915 5917 5918 5919 5921 5924 5925 5926 5927 5929 5931 5934 5935 5935 5934 5935 5937 5939 5941 5943 5944 5945 5945 5946 5947 5947 5947 5948 5949 5950 5951 5952 5953 5954 5954 5955 5956 5957
5905 5907 5910 5912 5913 5914 5916 5917 5918 5920 5921 5922 5924 5925 5927 5930 5932 5932 5932 5933 5935 5937 5938 5940 5941 5942 5943 5943 5944 5944 5945 5946 5947 5948 5949 5951 5951 5952 5952 5953 5954 5954
5902 5904 5907 5909 5910 5911 5913 5914 5915 5917 5918 5919 5921 5922 5924 5925 5927 5928 5929 5931 5932 5934 5935 5936 5937 5938 5940 5940 5940 5941 5941 5942 5943 5945 5946 5948 5949 5950 5950 5951 5951 5952
5899 5901 5903 5905 5907 5908 5909 5910 5911 5913 5914 5915 5917 5918 5920 5922 5923 5924 5926 5927 5928 5930 5931 5932 5932 5933 5934 5936 5937 5937 5938 5939 5939 5941 5943 5944 5946 5947 5947 5948 5949 5949
5896 5897 5899 5901 5902 5904 5905 5906 5908 5909 5911 5912 5913 5915 5916 5918 5919 5921 5922 5924 5925 5925 5926 5927 5928 5928 5929 5931 5933 5934 5935 5935 5935 5936 5938 5940 5941 5943 5944 5945 5946 5946
5892 5893 5895 5896 5898 5899 5901 5902 5904 5906 5908 5910 5911 5912 5913 5914 5915 5917 5918 5920 5921 5922 5922 5922 5922 5923 5924 5925 5927 5928 5930 5931 5931 5932 5933 5934 5935 5937 5939 5941 5942 5943
Wind_Speed
13 12 12 12 12 12 11 11 11 11 11 11 11 10 9 9 8 7 7 7 8 8 8 9 9 8 8 8 8 7 7 6 6 6 6 5 5 5 5 5 6 6
13 13 13 13 13 13 12 12 12 12 12 11 11 10 10 9 9 8 7 6 6 7 7 8 8 8 8 8 7 7 6 6 5 5 6 6 5 5 5 5 6 6
13 13 14 14 14 14 13 13 13 13 12 11 11 10 10 10 9 8 7 6 6 6 6 6 7 7 8 7 7 7 6 5 4 4 5 5 5 5 5 5 5 5
13 13 14 15 15 15 14 14 13 13 13 12 11 10 10 10 9 9 8 7 6 6 6 6 6 6 7 7 7 7 6 5 4 3 3 4 4 5 5 5 5 5
13 13 14 15 16 16 16 16 15 14 13 13 12 11 11 11 10 10 9 8 8 7 7 7 6 6 6 7 7 7 6 5 5 3 2 2 3 4 4 4 4 5
13 13 13 15 16 17 17 17 17 16 15 15 14 13 12 12 11 10 10 9 9 8 8 8 7 7 7 7 7 7 7 6 6 5 4 3 2 2 3 3 4 4
14 13 13 14 15 16 17 18 18 17 17 16 15 15 14 13 12 11 11 10 9 9 8 8 8 7 7 8 8 7 7 7 7 7 6 5 4 3 3 2 3 4
16 15 14 14 15 16 17 18 18 18 18 17 17 16 15 14 13 12 12 11 10 10 9 9 8 8 8 8 8 8 9 9 8 8 8 7 6 5 5 4 3 4
17 16 15 15 15 17 17 18 18 18 18 18 18 17 16 15 14 14 13 13 12 12 11 10 9 9 8 8 9 9 10 10 10 10 9 8 8 7 7 6 5 5
19 18 17 16 16 17 18 19 19 19 19 19 18 18 17 16 15 15 14 14 14 13 13 12 11 10 9 9 9 9 9 10 10 11 11 10 10 9 9 8 7 7
20 19 18 18 17 18 19 20 20 19 19 20 19 18 18 17 16 16 15 15 15 15 14 13 12 11 10 9 9 9 9 9 10 10 11 11 11 11 11 10 9 8
21 20 19 19 20 20 21 20 20 20 20 20 20 20 19 18 17 17 17 17 16 15 14 14 13 12 11 10 10 10 10 9 10 10 11 11 11 12 12 12 11 10
23 22 21 21 22 22 22 21 21 20 20 20 20 20 20 19 19 18 18 17 17 16 15 14 13 13 12 11 11 11 11 10 10 10 10 11 11 12 13 13 13 12
25 24 23 23 23 23 22 21 21 21 20 20 19 19 19 19 19 19 18 18 17 16 16 15 14 13 13 12 12 11 11 11 11 10 10 10 11 12 12 13 13 14
24 24 23 23 24 24 23 22 22 22 21 20 20 19 18 17 17 17 18 18 18 17 17 16 16 15 14 14 13 12 12 12 11 11 11 11 11 11 11 12 13 14
25 24 24 25 25 25 24 23 23 23 22 21 21 21 19 17 15 16 17 18 18 18 18 17 17 17 16 15 14 14 13 12 11 11 11 11 11 11 11 11 12 13
26 25 26 27 27 27 26 25 24 24 22 21 21 21 22 20 17 16 16 17 18 18 18 17 17 17 17 16 15 14 13 12 11 11 11 11 11 11 11 11 12 12
26 25 26 27 28 28 27 26 25 25 24 23 22 23 24 23 20 18 17 16 17 18 17 17 17 18 18 17 16 15 14 13 12 12 11 11 11 11 11 11 11 12
26 25 24 25 25 26 26 27 27 27 26 25 24 25 26 26 23 20 19 18 18 17 17 18 19 18 18 18 18 18 17 15 14 14 13 12 12 12 12 12 12 13
25 24 23 23 24 24 25 26 28 28 28 27 27 27 29 29 27 23 21 20 20 19 19 19 20 20 19 19 19 20 19 18 17 16 15 14 14 14 14 14 14 13
22 24 25 25 25 25 25 26 27 27 28 29 29 30 31 32 31 27 24 23 23 23 22 21 20 21 21 21 21 22 22 21 19 18 17 16 16 16 16 16 16 15
21 23 26 27 27 27 28 28 27 26 27 28 30 31 33 34 33 31 27 25 24 23 23 22 21 22 23 23 24 24 23 22 22 21 19 18 17 18 18 18 18 18
23 23 24 27 29 30 30 30 29 28 28 29 30 31 32 34 35 34 31 28 26 24 22 22 22 23 24 25 25 26 25 24 24 23 21 20 19 19 20 20 21 21
27 26 25 26 28 30 31 32 31 30 29 29 29 29 30 31 34 34 32 31 29 28 25 22 22 23 25 26 27 28 27 27 26 25 23 22 21 20 21 22 23 23
32 30 29 27 27 28 29 31 32 32 30 29 29 29 29 29 30 31 32 31 31 31 29 25 23 24 27 28 29 30 29 28 28 27 25 24 23 23 22 23 24 25
36 35 33 31 30 29 29 29 31 32 30 27 28 29 28 28 28 29 29 30 31 32 31 28 26 26 28 29 30 31 31 30 29 28 27 27 26 25 24 24 24 25
Wind_Direction
196 193 192 189 184 178 174 173 171 172 171 169 167 162 158 155 153 149 145 144 143 140 138 137 138 136 133 131 131 131 130 129 128 127 129 134 137 142 146 145 142 141
201 196 196 195 192 187 183 180 178 178 179 176 172 169 166 164 165 162 159 160 157 150 148 148 144 140 137 135 134 134 135 136 134 131 130 134 139 145 152 156 155 152
209 201 200 200 198 195 193 189 185 183 184 183 179 175 172 171 170 169 170 173 172 168 167 162 155 150 147 143 139 138 140 141 138 137 134 135 138 140 147 156 159 159
216 207 204 205 202 200 199 197 194 191 190 189 187 183 180 178 176 175 176 179 182 185 186 181 174 169 161 155 152 150 150 150 147 148 145 141 141 137 142 150 156 161
221 212 208 209 208 205 204 202 200 197 196 196 195 192 189 187 185 183 181 182 187 192 196 197 195 192 182 173 170 167 166 167 165 166 171 164 153 143 141 145 151 160
228 220 213 212 212 211 208 207 205 202 201 202 202 201 199 196 194 193 192 190 192 196 201 205 205 203 197 194 193 188 184 186 184 183 190 200 195 175 158 149 153 163
233 229 221 217 217 216 213 211 210 209 207 207 207 207 207 205 202 201 203 204 203 203 206 209 210 207 204 204 207 207 204 204 203 198 198 205 214 218 207 184 172 176
234 236 231 224 222 221 219 215 213 214 214 213 214 214 212 213 212 209 209 212 214 215 215 215 214 211 207 207 210 213 214 215 217 214 211 211 214 221 228 226 215 205
230 234 235 232 229 226 224 220 216 215 215 217 219 220 218 218 218 217 216 216 219 222 223 220 219 217 213 211 211 213 214 216 219 221 220 219 219 223 230 232 229 226
226 230 233 235 234 232 230 225 221 217 215 217 219 220 222 222 222 222 221 221 222 223 225 223 221 220 217 215 213 214 214 214 216 218 220 220 221 225 230 233 233 231
224 228 232 236 239 240 239 234 229 222 217 217 217 219 220 221 224 225 225 226 226 225 226 226 223 220 217 215 213 215 217 216 215 216 217 219 221 224 228 231 233 233
218 222 227 233 237 239 241 241 239 234 226 221 217 217 219 219 221 224 226 228 228 227 227 226 225 222 219 217 216 217 219 219 219 218 218 219 220 223 226 228 229 231
215 218 222 228 233 235 237 239 240 241 238 233 225 220 220 220 220 222 226 228 229 228 226 225 225 223 222 222 222 222 222 221 222 222 220 220 220 221 224 226 228 228
219 223 223 226 231 234 236 236 239 241 242 243 240 233 228 227 226 224 225 228 230 229 227 224 223 224 224 226 228 228 227 225 225 225 224 223 222 222 224 225 227 228
226 229 228 229 234 237 236 235 237 240 240 243 245 243 239 238 240 239 235 232 231 231 230 226 224 224 224 226 227 229 231 231 230 230 230 230 227 225 227 227 228 229
232 234 234 234 237 239 238 236 237 240 241 243 245 245 241 236 238 247 250 247 240 234 232 231 229 228 228 227 228 229 232 235 236 236 237 238 237 234 232 231 230 231
236 236 236 235 236 238 239 239 240 240 239 241 244 248 246 238 231 235 245 254 255 248 240 236 236 236 235 234 234 236 238 240 242 245 246 247 249 248 246 242 239 237
235 235 237 238 238 239 240 240 240 240 238 237 238 243 245 242 235 230 232 243 255 259 256 248 242 242 243 242 240 239 242 245 246 248 251 253 256 258 259 258 254 250
231 234 237 240 238 237 237 237 238 241 239 234 234 238 241 241 238 233 232 236 240 248 256 255 249 245 246 248 246 242 240 242 244 246 248 251 254 256 259 262 262 261
232 232 234 238 237 235 236 237 238 241 239 235 236 241 242 241 239 233 230 235 237 239 244 249 251 251 248 248 250 248 245 241 240 242 243 246 249 251 254 257 259 260
239 235 233 236 238 237 239 241 241 242 240 238 240 243 243 242 242 237 231 231 236 238 240 244 250 254 254 252 252 252 252 251 248 245 244 245 248 250 252 254 256 257
252 245 238 237 238 237 239 242 245 246 245 242 242 243 243 242 243 242 239 237 238 240 244 247 250 253 254 255 254 253 253 253 253 252 251 251 253 255 255 256 256 256
257 253 246 241 239 238 239 240 243 246 247 247 247 245 242 241 241 241 240 240 240 241 244 247 249 251 252 254 255 255 254 254 253 253 253 253 254 257 259 261 261 260
256 255 252 248 244 242 241 240 241 245 247 250 250 246 241 241 241 239 239 239 237 237 238 239 242 247 249 250 251 252 254 255 256 256 255 254 254 255 256 259 262 264
258 257 257 255 253 251 248 243 241 241 244 248 249 246 243 242 240 240 241 239 236 236 236 234 236 243 248 250 250 250 250 252 253 255 256 256 255 255 255 256 258 262
258 258 259 258 257 256 255 252 247 244 243 245 246 244 242 241 239 238 239 240 238 238 238 235 234 238 244 248 250 250 250 249 250 251 252 252 252 252 255 257 258 259